Time,TemperatureF,DewpointF,PressureIn,WindDirection,WindDirectionDegrees,WindSpeedMPH,WindSpeedGustMPH,Humidity,HourlyPrecipIn,Conditions,Clouds,dailyrainin,SoftwareType,DateUTC
2013-05-04 00:00:00,58.3,38.7,28.94,ESE,121,0.0,0.0,48,0.00,,---,0.00,VWS V14.01,2013-05-04 04:00:00,
2013-05-04 00:01:00,58.1,38.5,28.94,ESE,121,0.0,0.0,48,0.00,,---,0.00,VWS V14.01,2013-05-04 04:01:00,
2013-05-04 00:02:00,58.1,39.1,28.94,ESE,121,0.0,0.0,49,0.00,,---,0.00,VWS V14.01,2013-05-04 04:02:00,
2013-05-04 00:03:00,58.1,39.1,28.94,ESE,121,0.0,0.0,49,0.00,,---,0.00,VWS V14.01,2013-05-04 04:03:00,
2013-05-04 00:04:00,57.9,38.9,28.94,ESE,121,0.0,0.0,49,0.00,,---,0.00,VWS V14.01,2013-05-04 04:04:00,
2013-05-04 00:05:00,57.9,38.9,28.94,ESE,121,0.0,0.0,49,0.00,,---,0.00,VWS V14.01,2013-05-04 04:05:00,
2013-05-04 00:06:00,57.9,38.9,28.94,ESE,121,0.0,0.0,49,0.00,,---,0.00,VWS V14.01,2013-05-04 04:06:00,
2013-05-04 00:07:00,57.7,38.7,28.94,ESE,121,0.0,0.0,49,0.00,,---,0.00,VWS V14.01,2013-05-04 04:07:00,
2013-05-04 00:08:00,57.7,38.7,28.94,ESE,121,0.0,0.0,49,0.00,,---,0.00,VWS V14.01,2013-05-04 04:08:00,
2013-05-04 00:09:00,57.7,39.2,28.94,ESE,121,0.0,0.0,50,0.00,,---,0.00,VWS V14.01,2013-05-04 04:09:00,
2013-05-04 00:10:00,57.7,39.2,28.94,ESE,121,0.0,0.0,50,0.00,,---,0.00,VWS V14.01,2013-05-04 04:10:00,
2013-05-04 00:11:00,57.6,39.1,28.94,ESE,121,0.0,0.0,50,0.00,,---,0.00,VWS V14.01,2013-05-04 04:11:00,
2013-05-04 00:12:00,57.6,39.1,28.94,ESE,121,0.0,0.0,50,0.00,,---,0.00,VWS V14.01,2013-05-04 04:12:00,
2013-05-04 00:13:00,57.6,39.1,28.94,ESE,121,0.0,0.0,50,0.00,,---,0.00,VWS V14.01,2013-05-04 04:13:00,
2013-05-04 00:14:00,57.6,39.1,28.94,ESE,121,0.0,0.0,50,0.00,,---,0.00,VWS V14.01,2013-05-04 04:14:00,
2013-05-04 00:15:00,57.6,39.1,28.94,ESE,121,0.0,0.0,50,0.00,,---,0.00,VWS V14.01,2013-05-04 04:15:00,
2013-05-04 00:16:00,57.4,39.4,28.94,ESE,121,0.0,0.0,51,0.00,,---,0.00,VWS V14.01,2013-05-04 04:16:00,
2013-05-04 00:17:00,57.4,39.4,28.94,ESE,121,0.0,0.0,51,0.00,,---,0.00,VWS V14.01,2013-05-04 04:17:00,
2013-05-04 00:18:00,57.4,39.4,28.94,ESE,121,0.0,0.0,51,0.00,,---,0.00,VWS V14.01,2013-05-04 04:18:00,
2013-05-04 00:19:00,57.4,39.4,28.94,ESE,121,0.0,0.0,51,0.00,,---,0.00,VWS V14.01,2013-05-04 04:19:00,
2013-05-04 00:20:00,57.2,39.2,28.94,ESE,121,0.0,0.0,51,0.00,,---,0.00,VWS V14.01,2013-05-04 04:20:00,
2013-05-04 00:21:00,57.2,39.2,28.94,ESE,121,0.0,0.0,51,0.00,,---,0.00,VWS V14.01,2013-05-04 04:21:00,
2013-05-04 00:22:00,57.2,39.2,28.94,ESE,121,0.0,0.0,51,0.00,,---,0.00,VWS V14.01,2013-05-04 04:22:00,
2013-05-04 00:23:00,57.0,39.1,28.94,ESE,121,0.0,0.0,51,0.00,,---,0.00,VWS V14.01,2013-05-04 04:23:00,
2013-05-04 00:24:00,57.0,39.1,28.94,ESE,121,0.0,0.0,51,0.00,,---,0.00,VWS V14.01,2013-05-04 04:24:00,
2013-05-04 00:25:00,56.8,38.9,28.94,ESE,121,0.0,0.0,51,0.00,,---,0.00,VWS V14.01,2013-05-04 04:25:00,
2013-05-04 00:26:00,56.8,38.9,28.94,ESE,121,0.0,0.0,51,0.00,,---,0.00,VWS V14.01,2013-05-04 04:26:00,
2013-05-04 00:27:00,56.8,38.9,28.94,ESE,121,0.0,0.0,51,0.00,,---,0.00,VWS V14.01,2013-05-04 04:27:00,
2013-05-04 00:28:00,56.8,38.9,28.94,ESE,121,0.0,0.0,51,0.00,,---,0.00,VWS V14.01,2013-05-04 04:28:00,
2013-05-04 00:29:00,56.7,38.8,28.94,ESE,121,0.0,0.0,51,0.00,,---,0.00,VWS V14.01,2013-05-04 04:29:00,
2013-05-04 00:30:00,56.7,38.8,28.94,ESE,121,0.0,0.0,51,0.00,,---,0.00,VWS V14.01,2013-05-04 04:30:00,
2013-05-04 00:31:00,56.7,39.2,28.94,ESE,121,0.0,0.0,52,0.00,,---,0.00,VWS V14.01,2013-05-04 04:31:00,
2013-05-04 00:32:00,56.7,39.2,28.94,ESE,121,0.0,0.0,52,0.00,,---,0.00,VWS V14.01,2013-05-04 04:32:00,
2013-05-04 00:33:00,56.7,39.2,28.94,ESE,121,0.0,0.0,52,0.00,,---,0.00,VWS V14.01,2013-05-04 04:33:00,
2013-05-04 00:34:00,56.7,39.7,28.94,ESE,121,0.0,0.0,53,0.00,,---,0.00,VWS V14.01,2013-05-04 04:34:00,
2013-05-04 00:35:00,56.5,39.6,28.94,ESE,121,0.0,0.0,53,0.00,,---,0.00,VWS V14.01,2013-05-04 04:35:00,
2013-05-04 00:36:00,56.5,39.6,28.94,ESE,121,0.0,0.0,53,0.00,,---,0.00,VWS V14.01,2013-05-04 04:36:00,
2013-05-04 00:37:00,56.5,39.6,28.94,ESE,121,0.0,0.0,53,0.00,,---,0.00,VWS V14.01,2013-05-04 04:37:00,
2013-05-04 00:38:00,56.5,39.6,28.94,ESE,121,0.0,0.0,53,0.00,,---,0.00,VWS V14.01,2013-05-04 04:38:00,
2013-05-04 00:39:00,56.3,39.4,28.94,ESE,121,0.0,0.0,53,0.00,,---,0.00,VWS V14.01,2013-05-04 04:39:00,
2013-05-04 00:40:00,56.5,40.0,28.94,ESE,121,0.0,0.0,54,0.00,,---,0.00,VWS V14.01,2013-05-04 04:40:00,
2013-05-04 00:41:00,56.5,41.0,28.94,ESE,121,0.0,0.0,56,0.00,,---,0.00,VWS V14.01,2013-05-04 04:41:00,
2013-05-04 00:42:00,56.3,41.3,28.94,ESE,121,0.0,0.0,57,0.00,,---,0.00,VWS V14.01,2013-05-04 04:42:00,
2013-05-04 00:43:00,56.3,41.3,28.94,ESE,121,0.0,0.0,57,0.00,,---,0.00,VWS V14.01,2013-05-04 04:43:00,
2013-05-04 00:44:00,56.1,41.1,28.94,ESE,121,0.0,0.0,57,0.00,,---,0.00,VWS V14.01,2013-05-04 04:44:00,
2013-05-04 00:45:00,55.9,40.9,28.94,ESE,121,0.0,0.0,57,0.00,,---,0.00,VWS V14.01,2013-05-04 04:45:00,
2013-05-04 00:46:00,55.9,41.4,28.94,ESE,121,0.0,0.0,58,0.00,,---,0.00,VWS V14.01,2013-05-04 04:46:00,
2013-05-04 00:47:00,55.9,41.8,28.94,ESE,121,0.0,0.0,59,0.00,,---,0.00,VWS V14.01,2013-05-04 04:47:00,
2013-05-04 00:48:00,55.9,41.8,28.94,ESE,121,0.0,0.0,59,0.00,,---,0.00,VWS V14.01,2013-05-04 04:48:00,
2013-05-04 00:49:00,55.8,41.7,28.94,ESE,121,0.0,0.0,59,0.00,,---,0.00,VWS V14.01,2013-05-04 04:49:00,
2013-05-04 00:50:00,55.8,42.1,28.94,ESE,121,0.0,0.0,60,0.00,,---,0.00,VWS V14.01,2013-05-04 04:50:00,
2013-05-04 00:51:00,55.8,42.1,28.94,ESE,121,0.0,0.0,60,0.00,,---,0.00,VWS V14.01,2013-05-04 04:51:00,
2013-05-04 00:52:00,55.8,42.5,28.94,ESE,121,0.0,0.0,61,0.00,,---,0.00,VWS V14.01,2013-05-04 04:52:00,
2013-05-04 00:53:00,55.8,43.0,28.94,ESE,121,0.0,0.0,62,0.00,,---,0.00,VWS V14.01,2013-05-04 04:53:00,
2013-05-04 00:54:00,55.6,42.8,28.94,ESE,121,0.0,0.0,62,0.00,,---,0.00,VWS V14.01,2013-05-04 04:54:00,
2013-05-04 00:55:00,55.6,42.8,28.94,ESE,121,0.0,0.0,62,0.00,,---,0.00,VWS V14.01,2013-05-04 04:55:00,
2013-05-04 00:56:00,55.6,43.2,28.94,ESE,121,0.0,0.0,63,0.00,,---,0.00,VWS V14.01,2013-05-04 04:56:00,
2013-05-04 00:57:00,55.6,43.2,28.94,ESE,121,0.0,0.0,63,0.00,,---,0.00,VWS V14.01,2013-05-04 04:57:00,
2013-05-04 00:58:00,55.6,43.2,28.94,ESE,121,0.0,0.0,63,0.00,,---,0.00,VWS V14.01,2013-05-04 04:58:00,
2013-05-04 00:59:00,55.6,43.2,28.94,ESE,121,0.0,0.0,63,0.00,,---,0.00,VWS V14.01,2013-05-04 04:59:00,
2013-05-04 01:00:00,55.6,43.6,28.94,ESE,121,0.0,0.0,64,0.00,,---,0.00,VWS V14.01,2013-05-04 05:00:00,
2013-05-04 01:01:00,55.6,43.6,28.94,ESE,121,0.0,0.0,64,0.00,,---,0.00,VWS V14.01,2013-05-04 05:01:00,
2013-05-04 01:02:00,55.6,44.0,28.94,ESE,121,0.0,0.0,65,0.00,,---,0.00,VWS V14.01,2013-05-04 05:02:00,
2013-05-04 01:03:00,55.6,44.0,28.94,ESE,121,0.0,0.0,65,0.00,,---,0.00,VWS V14.01,2013-05-04 05:03:00,
2013-05-04 01:04:00,55.6,44.0,28.94,ESE,121,0.0,0.0,65,0.00,,---,0.00,VWS V14.01,2013-05-04 05:04:00,
2013-05-04 01:05:00,55.4,43.8,28.94,ESE,121,0.0,0.0,65,0.00,,---,0.00,VWS V14.01,2013-05-04 05:05:00,
2013-05-04 01:06:00,55.4,43.8,28.94,ESE,121,0.0,0.0,65,0.00,,---,0.00,VWS V14.01,2013-05-04 05:06:00,
2013-05-04 01:07:00,55.6,44.0,28.94,ESE,121,0.0,0.0,65,0.00,,---,0.00,VWS V14.01,2013-05-04 05:07:00,
2013-05-04 01:08:00,55.4,44.2,28.94,ESE,121,0.0,0.0,66,0.00,,---,0.00,VWS V14.01,2013-05-04 05:08:00,
2013-05-04 01:09:00,55.4,44.2,28.94,ESE,121,0.0,0.0,66,0.00,,---,0.00,VWS V14.01,2013-05-04 05:09:00,
2013-05-04 01:10:00,55.4,44.2,28.94,ESE,121,0.0,0.0,66,0.00,,---,0.00,VWS V14.01,2013-05-04 05:10:00,
2013-05-04 01:11:00,55.2,44.1,28.94,ESE,121,0.0,0.0,66,0.00,,---,0.00,VWS V14.01,2013-05-04 05:11:00,
2013-05-04 01:12:00,55.2,44.1,28.94,ESE,121,0.0,0.0,66,0.00,,---,0.00,VWS V14.01,2013-05-04 05:12:00,
2013-05-04 01:13:00,55.2,44.1,28.94,ESE,121,0.0,0.0,66,0.00,,---,0.00,VWS V14.01,2013-05-04 05:13:00,
2013-05-04 01:14:00,55.2,44.1,28.94,ESE,121,0.0,0.0,66,0.00,,---,0.00,VWS V14.01,2013-05-04 05:14:00,
2013-05-04 01:15:00,55.2,44.1,28.94,ESE,121,0.0,0.0,66,0.00,,---,0.00,VWS V14.01,2013-05-04 05:15:00,
2013-05-04 01:17:00,55.2,44.5,28.94,ESE,121,0.0,0.0,67,0.00,,---,0.00,VWS V14.01,2013-05-04 05:17:00,
2013-05-04 01:18:00,55.2,44.5,28.94,ESE,121,0.0,0.0,67,0.00,,---,0.00,VWS V14.01,2013-05-04 05:18:00,
2013-05-04 01:19:00,55.2,44.5,28.94,ESE,121,0.0,0.0,67,0.00,,---,0.00,VWS V14.01,2013-05-04 05:19:00,
2013-05-04 01:20:00,55.2,44.5,28.94,ESE,121,0.0,0.0,67,0.00,,---,0.00,VWS V14.01,2013-05-04 05:20:00,
2013-05-04 01:21:00,55.2,44.5,28.94,ESE,121,0.0,0.0,67,0.00,,---,0.00,VWS V14.01,2013-05-04 05:21:00,
2013-05-04 01:22:00,55.2,44.5,28.94,ESE,121,0.0,0.0,67,0.00,,---,0.00,VWS V14.01,2013-05-04 05:22:00,
2013-05-04 01:23:00,55.2,44.5,28.94,ESE,121,0.0,0.0,67,0.00,,---,0.00,VWS V14.01,2013-05-04 05:23:00,
2013-05-04 01:24:00,55.2,44.5,28.94,ESE,121,0.0,0.0,67,0.00,,---,0.00,VWS V14.01,2013-05-04 05:24:00,
2013-05-04 01:25:00,55.2,44.5,28.94,ESE,121,0.0,0.0,67,0.00,,---,0.00,VWS V14.01,2013-05-04 05:25:00,
2013-05-04 01:27:00,55.2,44.5,28.94,ESE,121,0.0,0.0,67,0.00,,---,0.00,VWS V14.01,2013-05-04 05:27:00,
2013-05-04 01:28:00,55.2,44.5,28.94,ESE,121,0.0,0.0,67,0.00,,---,0.00,VWS V14.01,2013-05-04 05:28:00,
2013-05-04 01:31:00,55.0,44.3,28.94,ESE,121,0.0,0.0,67,0.00,,---,0.00,VWS V14.01,2013-05-04 05:31:00,
2013-05-04 01:34:00,55.0,44.3,28.94,ESE,121,0.0,0.0,67,0.00,,---,0.00,VWS V14.01,2013-05-04 05:34:00,
2013-05-04 01:37:00,54.9,43.7,28.94,ESE,121,0.0,0.0,66,0.00,,---,0.00,VWS V14.01,2013-05-04 05:37:00,
2013-05-04 01:38:00,54.9,43.7,28.94,ESE,121,0.0,0.0,66,0.00,,---,0.00,VWS V14.01,2013-05-04 05:38:00,
2013-05-04 01:40:00,54.9,43.7,28.94,ESE,121,0.0,0.0,66,0.00,,---,0.00,VWS V14.01,2013-05-04 05:40:00,
2013-05-04 01:43:00,54.9,43.7,28.94,ESE,121,0.0,0.0,66,0.00,,---,0.00,VWS V14.01,2013-05-04 05:43:00,
2013-05-04 01:44:00,54.9,44.1,28.94,ESE,121,0.0,0.0,67,0.00,,---,0.00,VWS V14.01,2013-05-04 05:44:00,
2013-05-04 01:45:00,54.9,44.1,28.94,ESE,121,0.0,0.0,67,0.00,,---,0.00,VWS V14.01,2013-05-04 05:45:00,
2013-05-04 01:46:00,54.9,44.1,28.94,ESE,121,0.0,0.0,67,0.00,,---,0.00,VWS V14.01,2013-05-04 05:46:00,
2013-05-04 01:48:00,54.9,44.1,28.94,ESE,121,0.0,0.0,67,0.00,,---,0.00,VWS V14.01,2013-05-04 05:48:00,
2013-05-04 01:50:00,54.9,44.1,28.94,ESE,121,0.0,0.0,67,0.00,,---,0.00,VWS V14.01,2013-05-04 05:50:00,
2013-05-04 01:52:00,54.9,44.1,28.94,ESE,121,0.0,0.0,67,0.00,,---,0.00,VWS V14.01,2013-05-04 05:52:00,
2013-05-04 01:57:00,55.0,44.3,28.94,ESE,121,0.0,0.0,67,0.00,,---,0.00,VWS V14.01,2013-05-04 05:57:00,
2013-05-04 02:00:00,54.9,44.1,28.94,ESE,121,0.0,0.0,67,0.00,,---,0.00,VWS V14.01,2013-05-04 06:00:00,
2013-05-04 02:08:00,54.9,43.7,28.94,ESE,121,0.0,0.0,66,0.00,,---,0.00,VWS V14.01,2013-05-04 06:08:00,
2013-05-04 02:09:00,54.9,43.7,28.94,ESE,121,0.0,0.0,66,0.00,,---,0.00,VWS V14.01,2013-05-04 06:09:00,
2013-05-04 02:13:00,54.9,43.7,28.94,ESE,121,0.0,0.0,66,0.00,,---,0.00,VWS V14.01,2013-05-04 06:13:00,
2013-05-04 06:25:00,55.6,35.2,28.91,SSE,155,4.5,5.8,46,0.00,,---,0.00,VWS V14.01,2013-05-04 10:25:00,
2013-05-04 06:33:00,55.6,35.2,28.91,SE,127,5.4,5.8,46,0.00,,---,0.00,VWS V14.01,2013-05-04 10:33:00,
2013-05-04 06:40:00,55.8,34.8,28.91,ESE,123,6.7,8.3,45,0.00,,---,0.00,VWS V14.01,2013-05-04 10:40:00,
2013-05-04 06:52:00,56.3,34.1,28.91,SE,140,6.9,6.9,43,0.00,,---,0.00,VWS V14.01,2013-05-04 10:52:00,
2013-05-04 06:54:00,56.3,33.5,28.91,East,95,5.4,7.8,42,0.00,,---,0.00,VWS V14.01,2013-05-04 10:54:00,
2013-05-04 07:03:00,56.8,33.4,28.91,ESE,116,4.5,5.4,41,0.00,,---,0.00,VWS V14.01,2013-05-04 11:03:00,
2013-05-04 07:12:00,56.8,34.0,28.91,SE,124,5.4,7.4,42,0.00,,---,0.00,VWS V14.01,2013-05-04 11:12:00,
2013-05-04 07:18:00,56.8,34.6,28.91,East,96,3.1,4.0,43,0.00,,---,0.00,VWS V14.01,2013-05-04 11:18:00,
2013-05-04 07:21:00,56.8,35.2,28.91,ESE,120,3.6,4.9,44,0.00,,---,0.00,VWS V14.01,2013-05-04 11:21:00,
2013-05-04 07:27:00,56.8,35.7,28.91,East,80,4.5,4.5,45,0.00,,---,0.00,VWS V14.01,2013-05-04 11:27:00,
2013-05-04 07:32:00,56.8,35.7,28.91,East,83,4.9,5.8,45,0.00,,---,0.00,VWS V14.01,2013-05-04 11:32:00,
2013-05-04 07:35:00,57.0,35.9,28.91,ESE,102,4.0,6.3,45,0.00,,---,0.00,VWS V14.01,2013-05-04 11:35:00,
2013-05-04 07:37:00,57.2,36.1,28.91,East,96,6.3,6.3,45,0.00,,---,0.00,VWS V14.01,2013-05-04 11:37:00,
2013-05-04 07:38:00,57.2,36.1,28.91,ESE,111,5.8,6.3,45,0.00,,---,0.00,VWS V14.01,2013-05-04 11:38:00,
2013-05-04 07:42:00,57.4,35.1,28.91,East,93,2.7,4.9,43,0.00,,---,0.00,VWS V14.01,2013-05-04 11:42:00,
2013-05-04 07:43:00,57.6,35.8,28.91,ESE,112,4.5,6.7,44,0.00,,---,0.00,VWS V14.01,2013-05-04 11:43:00,
2013-05-04 07:45:00,57.6,35.2,28.91,East,79,6.3,6.9,43,0.00,,---,0.00,VWS V14.01,2013-05-04 11:45:00,
2013-05-04 08:11:00,59.4,34.4,28.91,ESE,107,8.3,8.3,39,0.00,,---,0.00,VWS V14.01,2013-05-04 12:11:00,
2013-05-04 08:16:00,61.2,34.7,28.91,East,88,4.5,6.9,37,0.00,,---,0.00,VWS V14.01,2013-05-04 12:16:00,
2013-05-04 08:24:00,60.6,32.8,28.91,East,94,4.5,6.3,35,0.00,,---,0.00,VWS V14.01,2013-05-04 12:24:00,
2013-05-04 08:26:00,60.3,32.5,28.91,East,81,4.9,6.9,35,0.00,,---,0.00,VWS V14.01,2013-05-04 12:26:00,
2013-05-04 08:31:00,59.7,33.4,28.94,ESE,102,5.4,7.8,37,0.00,,---,0.00,VWS V14.01,2013-05-04 12:31:00,
2013-05-04 10:04:00,62.6,33.1,28.94,SE,142,5.4,7.4,33,0.00,,---,0.00,VWS V14.01,2013-05-04 14:04:00,
2013-05-04 10:15:00,63.1,30.4,28.94,SSE,162,5.4,8.3,29,0.00,,---,0.00,VWS V14.01,2013-05-04 14:15:00,
2013-05-04 10:22:00,64.0,29.4,28.94,SE,128,9.6,11.2,27,0.00,,---,0.00,VWS V14.01,2013-05-04 14:22:00,
2013-05-04 10:28:00,64.4,28.8,28.94,SSE,152,6.9,11.2,26,0.00,,---,0.00,VWS V14.01,2013-05-04 14:28:00,
2013-05-04 10:34:00,65.1,28.5,28.94,East,89,11.0,11.2,25,0.00,,---,0.00,VWS V14.01,2013-05-04 14:34:00,
2013-05-04 10:40:00,64.9,27.3,28.94,SSE,166,8.7,8.7,24,0.00,,---,0.00,VWS V14.01,2013-05-04 14:40:00,
2013-05-04 10:45:00,65.7,27.9,28.94,SE,125,5.4,7.8,24,0.00,,---,0.00,VWS V14.01,2013-05-04 14:45:00,
2013-05-04 10:50:00,66.6,27.6,28.94,SE,141,9.2,9.2,23,0.00,,---,0.00,VWS V14.01,2013-05-04 14:50:00,
2013-05-04 10:55:00,66.6,27.6,28.94,SE,124,7.4,15.2,23,0.00,,---,0.00,VWS V14.01,2013-05-04 14:55:00,
2013-05-04 11:00:00,67.5,28.4,28.94,SSE,166,7.4,9.2,23,0.00,,---,0.00,VWS V14.01,2013-05-04 15:00:00,
2013-05-04 11:05:00,66.4,26.4,28.94,ESE,117,12.1,13.0,22,0.00,,---,0.00,VWS V14.01,2013-05-04 15:05:00,
2013-05-04 11:10:00,65.8,27.0,28.94,SE,131,4.0,8.7,23,0.00,,---,0.00,VWS V14.01,2013-05-04 15:10:00,
2013-05-04 11:15:00,66.9,26.9,28.94,ESE,114,11.6,11.6,22,0.00,,---,0.00,VWS V14.01,2013-05-04 15:15:00,
2013-05-04 11:20:00,66.9,26.9,28.94,ESE,109,8.3,13.0,22,0.00,,---,0.00,VWS V14.01,2013-05-04 15:20:00,
2013-05-04 11:26:00,66.2,24.0,28.94,ESE,109,6.9,9.6,20,0.00,,---,0.00,VWS V14.01,2013-05-04 15:26:00,
2013-05-04 11:31:00,65.3,23.2,28.94,SE,141,6.7,12.1,20,0.00,,---,0.00,VWS V14.01,2013-05-04 15:31:00,
2013-05-04 11:37:00,65.8,26.0,28.94,SSE,158,5.8,11.0,22,0.00,,---,0.00,VWS V14.01,2013-05-04 15:37:00,
2013-05-04 11:42:00,66.0,26.1,28.94,SE,125,6.3,9.6,22,0.00,,---,0.00,VWS V14.01,2013-05-04 15:42:00,
2013-05-04 11:47:00,65.7,23.5,28.97,SE,130,13.4,13.4,20,0.00,,---,0.00,VWS V14.01,2013-05-04 15:47:00,
2013-05-04 11:52:00,65.5,23.4,28.97,SE,140,9.6,9.6,20,0.00,,---,0.00,VWS V14.01,2013-05-04 15:52:00,
2013-05-04 11:58:00,65.8,26.0,28.97,SE,141,3.1,6.9,22,0.00,,---,0.00,VWS V14.01,2013-05-04 15:58:00,
2013-05-04 12:03:00,66.7,24.4,28.94,ESE,105,10.5,13.9,20,0.00,,---,0.00,VWS V14.01,2013-05-04 16:03:00,
2013-05-04 12:08:00,66.2,24.0,28.94,East,97,9.6,13.0,20,0.00,,---,0.00,VWS V14.01,2013-05-04 16:08:00,
2013-05-04 12:13:00,66.6,26.6,28.94,SE,129,5.4,9.6,22,0.00,,---,0.00,VWS V14.01,2013-05-04 16:13:00,
2013-05-04 12:18:00,66.9,24.6,28.94,ESE,103,6.7,6.9,20,0.00,,---,0.00,VWS V14.01,2013-05-04 16:18:00,
2013-05-04 12:23:00,67.1,24.7,28.94,East,86,4.5,6.9,20,0.00,,---,0.00,VWS V14.01,2013-05-04 16:23:00,
2013-05-04 12:28:00,66.9,24.6,28.94,East,89,6.3,9.6,20,0.00,,---,0.00,VWS V14.01,2013-05-04 16:28:00,
2013-05-04 12:33:00,67.3,24.9,28.94,East,94,5.8,9.2,20,0.00,,---,0.00,VWS V14.01,2013-05-04 16:33:00,
2013-05-04 12:38:00,68.5,25.9,28.94,East,99,8.3,11.0,20,0.00,,---,0.00,VWS V14.01,2013-05-04 16:38:00,
2013-05-04 12:43:00,70.3,23.5,28.94,ESE,111,7.8,8.7,17,0.00,,---,0.00,VWS V14.01,2013-05-04 16:43:00,
2013-05-04 12:49:00,70.2,23.4,28.94,East,99,7.4,9.6,17,0.00,,---,0.00,VWS V14.01,2013-05-04 16:49:00,
2013-05-04 12:54:00,70.9,22.5,28.94,ESE,119,6.7,9.6,16,0.00,,---,0.00,VWS V14.01,2013-05-04 16:54:00,
2013-05-04 12:59:00,71.8,23.2,28.94,ESE,103,6.3,10.1,16,0.00,,---,0.00,VWS V14.01,2013-05-04 16:59:00,
2013-05-04 13:04:00,72.1,23.5,28.94,ESE,116,9.2,9.6,16,0.00,,---,0.00,VWS V14.01,2013-05-04 17:04:00,
2013-05-04 13:10:00,72.0,23.4,28.94,ESE,102,11.6,11.6,16,0.00,,---,0.00,VWS V14.01,2013-05-04 17:10:00,
2013-05-04 13:15:00,72.1,23.5,28.94,East,101,7.8,8.3,16,0.00,,---,0.00,VWS V14.01,2013-05-04 17:15:00,
2013-05-04 13:20:00,71.8,23.2,28.94,SE,124,8.7,9.2,16,0.00,,---,0.00,VWS V14.01,2013-05-04 17:20:00,
2013-05-04 13:26:00,71.2,22.8,28.94,ESE,117,8.3,8.7,16,0.00,,---,0.00,VWS V14.01,2013-05-04 17:26:00,
2013-05-04 13:31:00,71.1,22.6,28.94,East,95,13.0,13.0,16,0.00,,---,0.00,VWS V14.01,2013-05-04 17:31:00,
2013-05-04 13:36:00,70.7,23.8,28.94,SE,127,4.9,6.9,17,0.00,,---,0.00,VWS V14.01,2013-05-04 17:36:00,
2013-05-04 13:41:00,71.6,23.1,28.94,NE,56,6.3,8.7,16,0.00,,---,0.00,VWS V14.01,2013-05-04 17:41:00,
2013-05-04 13:46:00,71.4,22.9,28.94,ESE,116,6.9,8.7,16,0.00,,---,0.00,VWS V14.01,2013-05-04 17:46:00,
2013-05-04 13:50:00,69.1,22.5,28.91,East,95,7.4,10.1,17,0.00,,---,0.00,VWS V14.01,2013-05-04 17:50:00,
2013-05-04 13:51:00,71.1,22.6,28.94,ENE,59,7.4,8.3,16,0.00,,---,0.00,VWS V14.01,2013-05-04 17:51:00,
2013-05-04 13:56:00,72.1,23.5,28.94,East,87,6.3,14.8,16,0.00,,---,0.00,VWS V14.01,2013-05-04 17:56:00,
2013-05-04 13:57:00,68.4,21.9,28.94,ESE,109,8.3,9.6,17,0.00,,---,0.00,VWS V14.01,2013-05-04 17:57:00,
2013-05-04 13:58:00,68.2,21.7,28.94,ESE,116,10.1,11.6,17,0.00,,---,0.00,VWS V14.01,2013-05-04 17:58:00,
2013-05-04 14:01:00,71.4,22.9,28.94,SE,129,8.3,8.3,16,0.00,,---,0.00,VWS V14.01,2013-05-04 18:01:00,
2013-05-04 14:04:00,66.4,26.4,28.94,SE,145,6.9,9.2,22,0.00,,---,0.00,VWS V14.01,2013-05-04 18:04:00,
2013-05-04 14:06:00,72.3,23.6,28.94,East,101,7.4,11.0,16,0.00,,---,0.00,VWS V14.01,2013-05-04 18:06:00,
2013-05-04 14:11:00,72.3,23.6,28.94,East,92,6.9,8.7,16,0.00,,---,0.00,VWS V14.01,2013-05-04 18:11:00,
2013-05-04 14:13:00,65.8,29.1,28.94,SE,136,6.3,7.4,25,0.00,,---,0.00,VWS V14.01,2013-05-04 18:13:00,
2013-05-04 14:16:00,72.0,23.4,28.91,SE,130,10.5,12.5,16,0.00,,---,0.00,VWS V14.01,2013-05-04 18:16:00,
2013-05-04 14:19:00,64.8,31.8,28.94,ESE,107,4.9,6.7,29,0.00,,---,0.00,VWS V14.01,2013-05-04 18:19:00,
2013-05-04 14:21:00,73.0,24.2,28.91,ESE,108,6.3,9.6,16,0.00,,---,0.00,VWS V14.01,2013-05-04 18:21:00,
2013-05-04 14:26:00,73.4,24.5,28.91,ESE,117,7.8,11.0,16,0.00,,---,0.00,VWS V14.01,2013-05-04 18:26:00,
2013-05-04 14:31:00,73.0,24.2,28.91,ESE,114,8.3,11.6,16,0.00,,---,0.00,VWS V14.01,2013-05-04 18:31:00,
2013-05-04 14:36:00,73.8,24.8,28.91,SE,128,6.3,9.6,16,0.00,,---,0.00,VWS V14.01,2013-05-04 18:36:00,
2013-05-04 14:38:00,62.8,38.1,28.94,SSE,148,6.3,6.3,40,0.00,,---,0.00,VWS V14.01,2013-05-04 18:38:00,
2013-05-04 14:41:00,73.9,25.0,28.91,ESE,103,5.8,12.1,16,0.00,,---,0.00,VWS V14.01,2013-05-04 18:41:00,
2013-05-04 14:46:00,73.2,24.4,28.91,ESE,120,6.9,9.2,16,0.00,,---,0.00,VWS V14.01,2013-05-04 18:46:00,
2013-05-04 14:51:00,74.1,25.1,28.91,ESE,106,5.4,8.3,16,0.00,,---,0.00,VWS V14.01,2013-05-04 18:51:00,
2013-05-04 14:57:00,74.3,23.7,28.91,SSE,154,7.4,10.1,15,0.00,,---,0.00,VWS V14.01,2013-05-04 18:57:00,
2013-05-04 14:59:00,60.4,42.2,28.94,South,171,8.7,8.7,51,0.00,,---,0.00,VWS V14.01,2013-05-04 18:59:00,
2013-05-04 15:01:00,60.6,43.9,28.94,ESE,102,6.9,8.7,54,0.00,,---,0.00,VWS V14.01,2013-05-04 19:01:00,
2013-05-04 15:02:00,75.7,24.9,28.91,East,79,10.5,14.3,15,0.00,,---,0.00,VWS V14.01,2013-05-04 19:02:00,
2013-05-04 15:03:00,60.6,43.4,28.94,ESE,122,4.9,7.4,53,0.00,,---,0.00,VWS V14.01,2013-05-04 19:03:00,
2013-05-04 15:05:00,61.0,44.7,28.94,SSE,151,6.7,6.7,55,0.00,,---,0.00,VWS V14.01,2013-05-04 19:05:00,
2013-05-04 15:07:00,73.6,24.7,28.91,SE,137,8.3,10.1,16,0.00,,---,0.00,VWS V14.01,2013-05-04 19:07:00,
2013-05-04 15:10:00,61.0,44.7,28.94,East,94,6.7,7.8,55,0.00,,---,0.00,VWS V14.01,2013-05-04 19:10:00,
2013-05-04 15:12:00,73.2,24.4,28.91,ENE,57,7.8,10.5,16,0.00,,---,0.00,VWS V14.01,2013-05-04 19:12:00,
2013-05-04 15:17:00,73.2,19.5,28.91,ENE,76,6.7,10.1,13,0.00,,---,0.00,VWS V14.01,2013-05-04 19:17:00,
2013-05-04 15:19:00,62.4,46.1,28.94,ESE,106,4.0,5.4,55,0.00,,---,0.00,VWS V14.01,2013-05-04 19:19:00,
2013-05-04 15:21:00,62.6,45.2,28.94,SE,126,3.6,5.8,53,0.00,,---,0.00,VWS V14.01,2013-05-04 19:21:00,
2013-05-04 15:22:00,73.0,19.3,28.91,South,170,4.0,8.3,13,0.00,,---,0.00,VWS V14.01,2013-05-04 19:22:00,
2013-05-04 15:24:00,62.4,43.5,28.94,SSE,159,4.5,7.4,50,0.00,,---,0.00,VWS V14.01,2013-05-04 19:24:00,
2013-05-04 15:28:00,73.4,19.6,28.91,SE,142,6.9,7.4,13,0.00,,---,0.00,VWS V14.01,2013-05-04 19:28:00,
2013-05-04 15:33:00,72.9,19.2,28.91,East,97,7.8,11.0,13,0.00,,---,0.00,VWS V14.01,2013-05-04 19:33:00,
2013-05-04 15:38:00,73.4,19.6,28.91,SE,141,6.7,11.0,13,0.00,,---,0.00,VWS V14.01,2013-05-04 19:38:00,
2013-05-04 15:43:00,73.6,19.8,28.91,ESE,109,10.5,11.0,13,0.00,,---,0.00,VWS V14.01,2013-05-04 19:43:00,
2013-05-04 15:44:00,63.3,43.3,28.94,SE,144,6.7,6.7,48,0.00,,---,0.00,VWS V14.01,2013-05-04 19:44:00,
2013-05-04 15:48:00,73.0,19.3,28.91,East,86,7.8,11.6,13,0.00,,---,0.00,VWS V14.01,2013-05-04 19:48:00,
2013-05-04 15:53:00,71.8,20.1,28.91,East,90,4.5,9.2,14,0.00,,---,0.00,VWS V14.01,2013-05-04 19:53:00,
2013-05-04 15:58:00,71.8,20.1,28.91,ESE,115,7.8,11.0,14,0.00,,---,0.00,VWS V14.01,2013-05-04 19:58:00,
2013-05-04 16:03:00,72.3,20.5,28.91,ESE,108,9.2,11.6,14,0.00,,---,0.00,VWS V14.01,2013-05-04 20:03:00,
2013-05-04 16:08:00,72.5,20.6,28.91,ESE,123,4.0,6.9,14,0.00,,---,0.00,VWS V14.01,2013-05-04 20:08:00,
2013-05-04 16:13:00,72.9,19.2,28.91,SE,124,5.8,8.3,13,0.00,,---,0.00,VWS V14.01,2013-05-04 20:13:00,
2013-05-04 16:18:00,74.1,20.2,28.91,East,94,6.7,9.6,13,0.00,,---,0.00,VWS V14.01,2013-05-04 20:18:00,
2013-05-04 16:23:00,73.9,20.0,28.91,East,90,4.5,9.2,13,0.00,,---,0.00,VWS V14.01,2013-05-04 20:23:00,
2013-05-04 16:28:00,72.9,19.2,28.91,ESE,117,4.9,9.2,13,0.00,,---,0.00,VWS V14.01,2013-05-04 20:28:00,
2013-05-04 16:33:00,73.2,19.5,28.91,ESE,120,6.3,7.4,13,0.00,,---,0.00,VWS V14.01,2013-05-04 20:33:00,
2013-05-04 16:38:00,73.8,19.9,28.91,SE,143,7.8,7.8,13,0.00,,---,0.00,VWS V14.01,2013-05-04 20:38:00,
2013-05-04 16:43:00,73.4,19.6,28.91,ESE,109,7.4,7.4,13,0.00,,---,0.00,VWS V14.01,2013-05-04 20:43:00,
2013-05-04 16:48:00,73.4,19.6,28.91,ESE,102,5.8,10.5,13,0.00,,---,0.00,VWS V14.01,2013-05-04 20:48:00,
2013-05-04 16:53:00,73.9,20.0,28.91,SSE,147,4.5,6.7,13,0.00,,---,0.00,VWS V14.01,2013-05-04 20:53:00,
2013-05-04 16:58:00,74.7,20.6,28.91,East,95,4.9,7.8,13,0.00,,---,0.00,VWS V14.01,2013-05-04 20:58:00,
2013-05-04 17:03:00,75.0,20.9,28.88,ESE,114,6.3,10.1,13,0.00,,---,0.00,VWS V14.01,2013-05-04 21:03:00,
2013-05-04 17:08:00,75.4,21.2,28.88,ESE,104,4.9,5.4,13,0.00,,---,0.00,VWS V14.01,2013-05-04 21:08:00,
2013-05-04 17:13:00,76.1,25.1,28.88,ESE,106,5.8,8.3,15,0.00,,---,0.00,VWS V14.01,2013-05-04 21:13:00,
2013-05-04 17:18:00,75.4,21.2,28.88,ENE,76,5.4,6.3,13,0.00,,---,0.00,VWS V14.01,2013-05-04 21:18:00,
2013-05-04 17:23:00,75.0,20.9,28.88,ESE,109,5.4,7.4,13,0.00,,---,0.00,VWS V14.01,2013-05-04 21:23:00,
2013-05-04 17:28:00,74.3,20.3,28.88,East,79,6.7,8.7,13,0.00,,---,0.00,VWS V14.01,2013-05-04 21:28:00,
2013-05-04 17:33:00,73.6,19.8,28.88,East,95,6.7,9.2,13,0.00,,---,0.00,VWS V14.01,2013-05-04 21:33:00,
2013-05-04 17:38:00,73.8,19.9,28.88,SE,134,3.6,10.5,13,0.00,,---,0.00,VWS V14.01,2013-05-04 21:38:00,
2013-05-04 17:43:00,73.4,19.6,28.88,ESE,115,7.8,7.8,13,0.00,,---,0.00,VWS V14.01,2013-05-04 21:43:00,
2013-05-04 17:48:00,73.2,19.5,28.88,ESE,111,13.4,13.4,13,0.00,,---,0.00,VWS V14.01,2013-05-04 21:48:00,
2013-05-04 17:53:00,73.4,19.6,28.88,ESE,108,3.1,6.3,13,0.00,,---,0.00,VWS V14.01,2013-05-04 21:53:00,
2013-05-04 17:58:00,73.9,20.0,28.88,ESE,108,7.4,13.9,13,0.00,,---,0.00,VWS V14.01,2013-05-04 21:58:00,
2013-05-04 18:03:00,73.8,19.9,28.91,ESE,122,9.2,9.6,13,0.00,,---,0.00,VWS V14.01,2013-05-04 22:03:00,
2013-05-04 18:08:00,73.4,19.6,28.91,ESE,115,8.7,10.1,13,0.00,,---,0.00,VWS V14.01,2013-05-04 22:08:00,
2013-05-04 18:13:00,73.0,19.3,28.91,SE,142,7.4,8.7,13,0.00,,---,0.00,VWS V14.01,2013-05-04 22:13:00,
2013-05-04 18:18:00,72.3,20.5,28.91,SE,126,6.9,11.2,14,0.00,,---,0.00,VWS V14.01,2013-05-04 22:18:00,
2013-05-04 18:23:00,71.8,20.1,28.91,SE,133,8.3,8.3,14,0.00,,---,0.00,VWS V14.01,2013-05-04 22:23:00,
2013-05-04 18:28:00,70.9,19.4,28.91,ENE,67,8.3,13.4,14,0.00,,---,0.00,VWS V14.01,2013-05-04 22:28:00,
2013-05-04 18:33:00,70.3,18.9,28.91,SE,128,9.2,9.2,14,0.00,,---,0.00,VWS V14.01,2013-05-04 22:33:00,
2013-05-04 18:38:00,70.5,19.1,28.91,SSE,157,5.4,7.8,14,0.00,,---,0.00,VWS V14.01,2013-05-04 22:38:00,
2013-05-04 18:43:00,70.7,19.2,28.91,East,94,5.4,6.9,14,0.00,,---,0.00,VWS V14.01,2013-05-04 22:43:00,
2013-05-04 18:48:00,71.1,19.5,28.91,ESE,113,4.5,6.3,14,0.00,,---,0.00,VWS V14.01,2013-05-04 22:48:00,
2013-05-04 18:53:00,71.8,23.2,28.91,SE,128,6.3,6.3,16,0.00,,---,0.00,VWS V14.01,2013-05-04 22:53:00,
2013-05-04 18:58:00,72.5,18.9,28.91,SSE,161,6.7,6.9,13,0.00,,---,0.00,VWS V14.01,2013-05-04 22:58:00,
2013-05-04 19:03:00,72.1,20.4,28.91,SSE,149,3.6,6.9,14,0.00,,---,0.00,VWS V14.01,2013-05-04 23:03:00,
2013-05-04 19:08:00,71.6,19.9,28.91,SE,140,4.9,6.9,14,0.00,,---,0.00,VWS V14.01,2013-05-04 23:08:00,
2013-05-04 19:13:00,70.9,19.4,28.91,ESE,104,6.3,7.8,14,0.00,,---,0.00,VWS V14.01,2013-05-04 23:13:00,
2013-05-04 19:18:00,71.1,19.5,28.91,East,93,5.8,7.8,14,0.00,,---,0.00,VWS V14.01,2013-05-04 23:18:00,
2013-05-04 19:23:00,70.3,18.9,28.91,SE,134,4.5,5.4,14,0.00,,---,0.00,VWS V14.01,2013-05-04 23:23:00,
2013-05-04 19:28:00,69.8,18.5,28.91,SSE,150,8.7,9.2,14,0.00,,---,0.00,VWS V14.01,2013-05-04 23:28:00,
2013-05-04 19:33:00,69.3,18.1,28.91,East,96,4.9,6.9,14,0.00,,---,0.00,VWS V14.01,2013-05-04 23:33:00,
2013-05-04 19:38:00,69.1,22.5,28.91,ESE,109,6.9,8.3,17,0.00,,---,0.00,VWS V14.01,2013-05-04 23:38:00,
2013-05-04 19:43:00,68.7,22.2,28.91,SE,137,7.4,9.2,17,0.00,,---,0.00,VWS V14.01,2013-05-04 23:43:00,
2013-05-04 19:48:00,68.5,22.0,28.91,SE,141,4.0,4.9,17,0.00,,---,0.00,VWS V14.01,2013-05-04 23:48:00,
2013-05-04 19:53:00,68.2,21.7,28.91,SE,144,4.5,5.8,17,0.00,,---,0.00,VWS V14.01,2013-05-04 23:53:00,
2013-05-04 19:58:00,68.0,21.6,28.91,SE,124,4.9,6.3,17,0.00,,---,0.00,VWS V14.01,2013-05-04 23:58:00,
2013-05-04 20:03:00,67.8,21.5,28.91,SE,141,4.5,7.4,17,0.00,,---,0.00,VWS V14.01,2013-05-05 00:03:00,
2013-05-04 20:08:00,67.6,21.3,28.91,SE,136,6.9,6.9,17,0.00,,---,0.00,VWS V14.01,2013-05-05 00:08:00,
2013-05-04 20:13:00,67.5,21.2,28.91,ESE,109,3.1,4.5,17,0.00,,---,0.00,VWS V14.01,2013-05-05 00:13:00,
2013-05-04 20:18:00,67.1,20.9,28.91,ESE,121,0.0,6.7,17,0.00,,---,0.00,VWS V14.01,2013-05-05 00:18:00,
2013-05-04 20:23:00,66.9,20.7,28.91,ESE,121,0.0,0.0,17,0.00,,---,0.00,VWS V14.01,2013-05-05 00:23:00,
2013-05-04 20:28:00,66.7,20.6,28.91,ESE,121,4.0,4.0,17,0.00,,---,0.00,VWS V14.01,2013-05-05 00:28:00,
2013-05-04 20:33:00,66.4,20.3,28.94,ESE,121,0.0,0.0,17,0.00,,---,0.00,VWS V14.01,2013-05-05 00:33:00,
2013-05-04 20:38:00,66.2,24.0,28.94,ESE,121,0.0,0.0,20,0.00,,---,0.00,VWS V14.01,2013-05-05 00:38:00,
2013-05-04 20:43:00,65.8,23.7,28.94,ESE,121,0.0,0.0,20,0.00,,---,0.00,VWS V14.01,2013-05-05 00:43:00,
2013-05-04 20:48:00,65.5,23.4,28.94,ESE,121,0.0,0.0,20,0.00,,---,0.00,VWS V14.01,2013-05-05 00:48:00,
2013-05-04 20:53:00,64.9,22.9,28.94,ESE,121,0.0,0.0,20,0.00,,---,0.00,VWS V14.01,2013-05-05 00:53:00,
2013-05-04 20:58:00,64.6,22.6,28.94,ESE,121,0.0,0.0,20,0.00,,---,0.00,VWS V14.01,2013-05-05 00:58:00,
2013-05-04 21:03:00,64.0,25.5,28.94,ESE,121,0.0,0.0,23,0.00,,---,0.00,VWS V14.01,2013-05-05 01:03:00,
2013-05-04 21:08:00,63.5,25.1,28.94,ESE,121,0.0,0.0,23,0.00,,---,0.00,VWS V14.01,2013-05-05 01:08:00,
2013-05-04 21:13:00,63.1,25.8,28.94,ESE,121,0.0,0.0,24,0.00,,---,0.00,VWS V14.01,2013-05-05 01:13:00,
2013-05-04 21:18:00,62.6,25.3,28.94,ESE,121,0.0,0.0,24,0.00,,---,0.00,VWS V14.01,2013-05-05 01:18:00,
2013-05-04 21:23:00,62.2,25.0,28.94,ESE,121,0.0,0.0,24,0.00,,---,0.00,VWS V14.01,2013-05-05 01:23:00,
2013-05-04 21:28:00,61.9,25.7,28.94,ESE,121,0.0,0.0,25,0.00,,---,0.00,VWS V14.01,2013-05-05 01:28:00,
2013-05-04 21:33:00,61.5,26.3,28.94,ESE,121,0.0,0.0,26,0.00,,---,0.00,VWS V14.01,2013-05-05 01:33:00,
2013-05-04 21:38:00,61.2,26.9,28.94,ESE,121,0.0,0.0,27,0.00,,---,0.00,VWS V14.01,2013-05-05 01:38:00,
2013-05-04 21:43:00,60.8,27.5,28.94,ESE,121,0.0,0.0,28,0.00,,---,0.00,VWS V14.01,2013-05-05 01:43:00,
2013-05-04 21:48:00,60.6,28.2,28.94,ESE,121,0.0,0.0,29,0.00,,---,0.00,VWS V14.01,2013-05-05 01:48:00,
2013-05-04 21:53:00,60.4,29.7,28.94,ESE,121,0.0,0.0,31,0.00,,---,0.00,VWS V14.01,2013-05-05 01:53:00,
2013-05-04 21:58:00,60.1,31.6,28.94,ESE,121,0.0,0.0,34,0.00,,---,0.00,VWS V14.01,2013-05-05 01:58:00,
2013-05-04 22:03:00,59.9,31.5,28.94,ESE,121,0.0,0.0,34,0.00,,---,0.00,VWS V14.01,2013-05-05 02:03:00,
2013-05-04 22:08:00,60.1,32.4,28.94,ESE,121,0.0,0.0,35,0.00,,---,0.00,VWS V14.01,2013-05-05 02:08:00,
2013-05-04 22:13:00,60.3,33.2,28.94,ESE,121,0.0,0.0,36,0.00,,---,0.00,VWS V14.01,2013-05-05 02:13:00,
2013-05-04 22:18:00,60.4,33.4,28.94,ESE,121,0.0,0.0,36,0.00,,---,0.00,VWS V14.01,2013-05-05 02:18:00,
2013-05-04 22:23:00,60.6,33.5,28.94,ESE,121,0.0,4.5,36,0.00,,---,0.00,VWS V14.01,2013-05-05 02:23:00,
2013-05-04 22:28:00,60.6,32.8,28.94,ESE,121,0.0,0.0,35,0.00,,---,0.00,VWS V14.01,2013-05-05 02:28:00,
2013-05-04 22:33:00,60.6,32.8,28.94,ESE,121,0.0,0.0,35,0.00,,---,0.00,VWS V14.01,2013-05-05 02:33:00,
2013-05-04 22:38:00,60.4,33.4,28.94,ESE,121,0.0,0.0,36,0.00,,---,0.00,VWS V14.01,2013-05-05 02:38:00,
2013-05-04 22:43:00,60.3,32.5,28.94,ESE,121,0.0,0.0,35,0.00,,---,0.00,VWS V14.01,2013-05-05 02:43:00,
2013-05-04 22:48:00,60.1,32.4,28.94,ESE,121,0.0,0.0,35,0.00,,---,0.00,VWS V14.01,2013-05-05 02:48:00,
2013-05-04 22:53:00,59.9,32.9,28.94,ESE,121,0.0,0.0,36,0.00,,---,0.00,VWS V14.01,2013-05-05 02:53:00,
2013-05-04 22:58:00,59.9,33.6,28.94,ESE,121,0.0,0.0,37,0.00,,---,0.00,VWS V14.01,2013-05-05 02:58:00,
2013-05-04 23:04:00,60.1,33.8,28.94,ESE,121,0.0,0.0,37,0.00,,---,0.00,VWS V14.01,2013-05-05 03:04:00,
2013-05-04 23:09:00,60.3,34.6,28.94,ESE,121,0.0,0.0,38,0.00,,---,0.00,VWS V14.01,2013-05-05 03:09:00,
2013-05-04 23:14:00,60.4,34.7,28.94,ESE,121,0.0,0.0,38,0.00,,---,0.00,VWS V14.01,2013-05-05 03:14:00,
2013-05-04 23:19:00,60.6,35.5,28.94,ESE,121,0.0,0.0,39,0.00,,---,0.00,VWS V14.01,2013-05-05 03:19:00,
2013-05-04 23:24:00,60.8,36.3,28.94,ESE,121,0.0,0.0,40,0.00,,---,0.00,VWS V14.01,2013-05-05 03:24:00,
2013-05-04 23:29:00,60.6,36.8,28.94,ESE,121,0.0,0.0,41,0.00,,---,0.00,VWS V14.01,2013-05-05 03:29:00,
2013-05-04 23:34:00,60.4,38.4,28.94,ESE,121,0.0,0.0,44,0.00,,---,0.00,VWS V14.01,2013-05-05 03:34:00,
2013-05-04 23:39:00,59.9,38.5,28.94,ESE,121,0.0,0.0,45,0.00,,---,0.00,VWS V14.01,2013-05-05 03:39:00,
2013-05-04 23:44:00,59.5,38.2,28.94,ESE,121,0.0,0.0,45,0.00,,---,0.00,VWS V14.01,2013-05-05 03:44:00,
2013-05-04 23:49:00,59.2,38.4,28.94,ESE,121,0.0,0.0,46,0.00,,---,0.00,VWS V14.01,2013-05-05 03:49:00,
2013-05-04 23:55:00,58.8,38.7,28.94,ESE,121,0.0,0.0,47,0.00,,---,0.00,VWS V14.01,2013-05-05 03:55:00,
2013-05-04 23:59:00,55.9,49.2,28.88,North,2,0.0,0.0,78,0.00,,---,0.00,VWS V14.01,2013-05-05 03:59:00,